Weather History for Bentonville, AR

Change the Weather History Date:

Friday, January 4, 2013

  Actual Average Record
Temperature  
Mean Temperature 34 °F -  
Max Temperature 46 °F 42 °F 67 °F (1955)
Min Temperature 21 °F 21 °F -4 °F (1959)
Degree Days  
Heating Degree Days 32    
Moisture  
Dew Point 22 °F    
Average Humidity 66    
Maximum Humidity 100    
Minimum Humidity 37    
Precipitation  
Precipitation 0.00 in - - ()
Sea Level Pressure  
Sea Level Pressure 30.38 in    
Wind  
Wind Speed 3 mph (SW)    
Max Wind Speed 10 mph    
Max Gust Speed 16 mph    
Visibility 9 miles    
Events      
Averages and records for this station are not official NWS values.
T = Trace of Precipitation, MM = Missing Value Source: NWS Daily Summary

Daily Weather History Graph

Daily Weather History Graph

Search for Another Location

Airport:

Trip Planner

Search our weather history database for the weather conditions in past years. The results will help you decide how hot, cold, wet, or windy it might be!

Date:

Astronomy

Jan. 04, 2013 Rise Set
Actual Time 7:28 AM CST 5:15 PM CST
Civil Twilight 7:00 AM CST 5:43 PM CST
Nautical Twilight 6:28 AM CST 6:16 PM CST
Astronomical Twilight 5:57 AM CST 6:47 PM CST
Moon No Moon Rise 11:25 AM CST (1/4)
Length of Visible Light 10h 43m
Length of Day
9h 46m
Waning Gibbous, 55% of the Moon is Illuminated
Jan 4
Waning Gibbous
Jan 4
Last Quarter
Jan 11
New
Jan 18
First Quarter
Jan 26
Full

Hourly Weather History & Observations

Time (CST) Temp. Windchill Dew Point Humidity Pressure Visibility Wind Dir Wind Speed Gust Speed Precip Events Conditions
12:15 AM 32.0 °F 28.7 °F 24.8 °F 75% 30.39 in 10.0 mi NNW 3.5 mph - N/A   Overcast
12:35 AM 30.2 °F - 24.8 °F 80% 30.39 in 10.0 mi Calm Calm - N/A   Mostly Cloudy
12:55 AM 30.2 °F - 24.8 °F 80% 30.39 in 10.0 mi Calm Calm - N/A   Overcast
1:35 AM 30.2 °F 26.7 °F 24.8 °F 80% 30.40 in 10.0 mi West 3.5 mph - N/A   Overcast
1:55 AM 30.2 °F - 24.8 °F 80% 30.40 in 10.0 mi Calm Calm - N/A   Overcast
2:15 AM 30.2 °F 26.7 °F 24.8 °F 80% 30.40 in 10.0 mi NNW 3.5 mph - N/A   Overcast
2:35 AM 30.2 °F - 24.8 °F 80% 30.40 in 10.0 mi Calm Calm - N/A   Partly Cloudy
3:15 AM 28.4 °F - 23.0 °F 80% 30.40 in 10.0 mi Calm Calm - N/A   Overcast
3:35 AM 26.6 °F - 21.2 °F 80% 30.39 in 10.0 mi Calm Calm - N/A   Partly Cloudy
4:15 AM 24.8 °F - 21.2 °F 86% 30.39 in 10.0 mi Calm Calm - N/A   Clear
4:35 AM 24.8 °F - 21.2 °F 86% 30.39 in 10.0 mi Calm Calm - N/A   Clear
4:55 AM 21.2 °F - 17.6 °F 86% 30.39 in 10.0 mi Calm Calm - N/A   Clear
5:15 AM 23.0 °F - 21.2 °F 93% 30.40 in 7.0 mi Calm Calm - N/A   Clear
5:35 AM 21.2 °F - 21.2 °F 100% 30.40 in 7.0 mi Calm Calm - N/A   Clear
5:55 AM 21.2 °F - 15.8 °F 80% 30.40 in 7.0 mi Calm Calm - N/A   Clear
6:15 AM 21.2 °F - 19.4 °F 93% 30.41 in 6.0 mi Calm Calm - N/A   Clear
6:35 AM 21.2 °F - 19.4 °F 93% 30.42 in 7.0 mi Calm Calm - N/A   Clear
7:15 AM 21.2 °F 14.9 °F 19.4 °F 93% 30.42 in 7.0 mi SSW 4.6 mph - N/A   Clear
7:55 AM 24.8 °F 19.1 °F 21.2 °F 86% 30.43 in 5.0 mi SSE 4.6 mph - N/A   Clear
8:15 AM 26.6 °F 22.6 °F 23.0 °F 86% 30.43 in 6.0 mi South 3.5 mph - N/A   Clear
8:35 AM 26.6 °F - 24.8 °F 93% 30.43 in 7.0 mi Calm Calm - N/A   Clear
8:55 AM 28.4 °F - 24.8 °F 86% 30.42 in 9.0 mi Calm Calm - N/A   Clear
9:15 AM 30.2 °F 25.4 °F 24.8 °F 80% 30.43 in 10.0 mi SSW 4.6 mph - N/A   Clear
9:55 AM 33.8 °F 29.6 °F 23.0 °F 65% 30.44 in 10.0 mi South 4.6 mph - N/A   Clear
10:15 AM 35.6 °F 31.7 °F 24.8 °F 65% 30.44 in 10.0 mi SSW 4.6 mph - N/A   Clear
10:35 AM 35.6 °F 31.7 °F 21.2 °F 56% 30.45 in 10.0 mi WSW 4.6 mph - N/A   Clear
10:55 AM 37.4 °F 33.8 °F 21.2 °F 52% 30.44 in 10.0 mi South 4.6 mph - N/A   Clear
11:35 AM 39.2 °F 35.0 °F 21.2 °F 49% 30.42 in 10.0 mi WSW 5.8 mph - N/A   Clear
11:55 AM 39.2 °F 34.2 °F 21.2 °F 49% 30.42 in 10.0 mi WSW 6.9 mph - N/A   Clear
12:15 PM 41.0 °F 35.8 °F 21.2 °F 45% 30.40 in 10.0 mi SSW 8.1 mph - N/A   Clear
12:35 PM 42.8 °F 37.0 °F 21.2 °F 42% 30.39 in 10.0 mi SW 10.4 mph - N/A   Clear
12:55 PM 42.8 °F 37.5 °F 21.2 °F 42% 30.38 in 10.0 mi WSW 9.2 mph 16.1 mph N/A   Clear
1:35 PM 42.8 °F 38.6 °F 21.2 °F 42% 30.36 in 10.0 mi WSW 6.9 mph - N/A   Clear
1:55 PM 44.6 °F 40.7 °F 21.2 °F 39% 30.35 in 10.0 mi West 6.9 mph - N/A   Clear
2:15 PM 44.6 °F 40.2 °F 21.2 °F 39% 30.34 in 10.0 mi West 8.1 mph - N/A   Clear
2:35 PM 44.6 °F 40.7 °F 21.2 °F 39% 30.34 in 10.0 mi WSW 6.9 mph - N/A   Clear
2:55 PM 44.6 °F 40.2 °F 21.2 °F 39% 30.33 in 10.0 mi West 8.1 mph - N/A   Clear
3:35 PM 46.4 °F 42.4 °F 21.2 °F 37% 30.34 in 10.0 mi West 8.1 mph - N/A   Clear
3:55 PM 46.4 °F 42.4 °F 21.2 °F 37% 30.34 in 10.0 mi WSW 8.1 mph - N/A   Clear
4:15 PM 44.6 °F 39.2 °F 21.2 °F 39% 30.34 in 10.0 mi WSW 10.4 mph - N/A   Clear
4:35 PM 44.6 °F 41.4 °F 21.2 °F 39% 30.33 in 10.0 mi WSW 5.8 mph - N/A   Clear
5:35 PM 41.0 °F 38.0 °F 19.4 °F 42% 30.33 in 10.0 mi SSW 4.6 mph - N/A   Clear
5:55 PM 39.2 °F 35.0 °F 21.2 °F 49% 30.33 in 10.0 mi SW 5.8 mph - N/A   Clear
6:15 PM 37.4 °F 32.8 °F 21.2 °F 52% 30.34 in 10.0 mi SSW 5.8 mph - N/A   Clear
6:55 PM 35.6 °F 29.9 °F 21.2 °F 56% 30.34 in 10.0 mi SSW 6.9 mph - N/A   Clear
7:15 PM 35.6 °F 31.7 °F 19.4 °F 52% 30.34 in 10.0 mi South 4.6 mph - N/A   Clear
7:35 PM 33.8 °F 28.6 °F 19.4 °F 56% 30.34 in 10.0 mi South 5.8 mph - N/A   Clear
7:55 PM 33.8 °F 28.6 °F 21.2 °F 60% 30.34 in 10.0 mi South 5.8 mph - N/A   Clear
8:15 PM 33.8 °F 27.7 °F 21.2 °F 60% 30.34 in 10.0 mi SSW 6.9 mph - N/A   Clear
8:35 PM 33.8 °F 27.7 °F 21.2 °F 60% 30.34 in 10.0 mi South 6.9 mph - N/A   Clear
8:55 PM 33.8 °F 27.7 °F 21.2 °F 60% 30.34 in 10.0 mi South 6.9 mph - N/A   Clear
9:36 PM 30.2 °F 24.3 °F 21.2 °F 69% 30.34 in 10.0 mi South 5.8 mph - N/A   Clear
9:55 PM 30.2 °F 25.4 °F 21.2 °F 69% 30.33 in 10.0 mi South 4.6 mph - N/A   Clear
10:15 PM 32.0 °F 26.4 °F 21.2 °F 64% 30.33 in 10.0 mi South 5.8 mph - N/A   Clear
10:35 PM 30.2 °F 25.4 °F 21.2 °F 69% 30.33 in 10.0 mi South 4.6 mph - N/A   Clear
10:55 PM 30.2 °F 25.4 °F 21.2 °F 69% 30.31 in 10.0 mi South 4.6 mph - N/A   Clear
11:36 PM 28.4 °F - 21.2 °F 74% 30.31 in 10.0 mi Calm Calm - N/A   Clear
11:55 PM 28.4 °F 24.6 °F 21.2 °F 74% 30.30 in 10.0 mi South 3.5 mph - N/A   Clear